Time,TemperatureF,DewpointF,PressureIn,WindDirection,WindDirectionDegrees,WindSpeedMPH,WindSpeedGustMPH,Humidity,HourlyPrecipIn,Conditions,Clouds,dailyrainin,SoftwareType,DateUTC
2013-05-16 00:01:00,66.4,49.7,30.01,NW,304,0.0,4.0,55,0.00,,,0.00,Wunderground v.1.15,2013-05-16 04:01:00,
2013-05-16 00:06:00,66.4,49.7,30.01,WNW,296,3.0,6.0,55,0.00,,,0.00,Wunderground v.1.15,2013-05-16 04:06:00,
2013-05-16 00:11:00,66.4,49.7,30.01,WNW,295,0.0,5.0,55,0.00,,,0.00,Wunderground v.1.15,2013-05-16 04:11:00,
2013-05-16 00:16:00,66.4,50.2,30.01,WNW,295,2.0,5.0,56,0.00,,,0.00,Wunderground v.1.15,2013-05-16 04:16:00,
2013-05-16 00:21:00,66.3,50.1,30.01,WNW,303,3.0,6.0,56,0.00,,,0.00,Wunderground v.1.15,2013-05-16 04:21:00,
2013-05-16 00:26:00,66.1,50.9,30.01,WNW,302,3.0,6.0,58,0.00,,,0.00,Wunderground v.1.15,2013-05-16 04:26:00,
2013-05-16 00:31:00,66.0,50.8,30.01,WNW,302,2.0,4.0,58,0.00,,,0.00,Wunderground v.1.15,2013-05-16 04:31:00,
2013-05-16 00:36:00,65.8,51.1,30.00,WNW,302,2.0,4.0,59,0.00,,,0.00,Wunderground v.1.15,2013-05-16 04:36:00,
2013-05-16 00:41:00,65.6,51.8,30.00,WNW,302,0.0,2.0,61,0.00,,,0.00,Wunderground v.1.15,2013-05-16 04:41:00,
2013-05-16 00:46:00,65.5,52.1,30.00,WNW,303,0.0,4.0,62,0.00,,,0.00,Wunderground v.1.15,2013-05-16 04:46:00,
2013-05-16 00:51:00,65.5,52.1,30.00,WNW,303,3.0,3.0,62,0.00,,,0.00,Wunderground v.1.15,2013-05-16 04:51:00,
2013-05-16 00:56:00,65.5,52.1,30.00,WNW,303,2.0,5.0,62,0.00,,,0.00,Wunderground v.1.15,2013-05-16 04:56:00,
2013-05-16 01:01:00,65.5,52.6,30.00,WNW,303,1.0,2.0,63,0.00,,,0.00,Wunderground v.1.15,2013-05-16 05:01:00,
2013-05-16 01:06:00,65.3,52.4,30.00,WNW,303,2.0,4.0,63,0.00,,,0.00,Wunderground v.1.15,2013-05-16 05:06:00,
2013-05-16 01:11:00,65.2,52.7,30.00,WNW,303,0.0,4.0,64,0.00,,,0.00,Wunderground v.1.15,2013-05-16 05:11:00,
2013-05-16 01:16:00,65.0,52.5,30.00,WNW,303,1.0,4.0,64,0.00,,,0.00,Wunderground v.1.15,2013-05-16 05:16:00,
2013-05-16 01:21:00,64.8,52.8,30.00,WNW,303,0.0,1.0,65,0.00,,,0.00,Wunderground v.1.15,2013-05-16 05:21:00,
2013-05-16 01:26:00,64.7,52.2,30.00,WNW,303,0.0,4.0,64,0.00,,,0.00,Wunderground v.1.15,2013-05-16 05:26:00,
2013-05-16 01:31:00,64.8,51.9,30.00,WNW,303,0.0,3.0,63,0.00,,,0.00,Wunderground v.1.15,2013-05-16 05:31:00,
2013-05-16 01:36:00,64.8,51.9,29.99,WNW,303,1.0,3.0,63,0.00,,,0.00,Wunderground v.1.15,2013-05-16 05:36:00,
2013-05-16 01:41:00,65.0,51.7,29.99,WNW,303,3.0,3.0,62,0.00,,,0.00,Wunderground v.1.15,2013-05-16 05:41:00,
2013-05-16 01:46:00,65.0,51.7,29.99,WNW,303,3.0,4.0,62,0.00,,,0.00,Wunderground v.1.15,2013-05-16 05:46:00,
2013-05-16 01:51:00,65.2,51.4,29.99,WNW,303,0.0,3.0,61,0.00,,,0.00,Wunderground v.1.15,2013-05-16 05:51:00,
2013-05-16 01:56:00,65.3,51.5,29.99,WNW,303,1.0,3.0,61,0.00,,,0.00,Wunderground v.1.15,2013-05-16 05:56:00,
2013-05-16 02:01:00,65.3,51.5,29.99,WNW,303,1.0,3.0,61,0.00,,,0.00,Wunderground v.1.15,2013-05-16 06:01:00,
2013-05-16 02:06:00,65.6,51.3,29.98,WNW,303,3.0,4.0,60,0.00,,,0.00,Wunderground v.1.15,2013-05-16 06:06:00,
2013-05-16 02:11:00,65.6,51.3,29.98,WNW,303,2.0,3.0,60,0.00,,,0.00,Wunderground v.1.15,2013-05-16 06:11:00,
2013-05-16 02:16:00,65.8,51.5,29.98,WNW,303,2.0,4.0,60,0.00,,,0.00,Wunderground v.1.15,2013-05-16 06:16:00,
2013-05-16 02:21:00,65.8,51.5,29.98,WNW,303,3.0,3.0,60,0.00,,,0.00,Wunderground v.1.15,2013-05-16 06:21:00,
2013-05-16 02:26:00,65.8,51.5,29.98,WNW,303,0.0,4.0,60,0.00,,,0.00,Wunderground v.1.15,2013-05-16 06:26:00,
2013-05-16 02:31:00,65.8,51.5,29.98,WNW,303,1.0,2.0,60,0.00,,,0.00,Wunderground v.1.15,2013-05-16 06:31:00,
2013-05-16 02:36:00,65.6,51.3,29.97,WNW,303,0.0,4.0,60,0.00,,,0.00,Wunderground v.1.15,2013-05-16 06:36:00,
2013-05-16 02:41:00,65.5,51.7,29.97,WNW,303,0.0,4.0,61,0.00,,,0.00,Wunderground v.1.15,2013-05-16 06:41:00,
2013-05-16 02:46:00,65.3,51.5,29.97,WNW,303,2.0,4.0,61,0.00,,,0.00,Wunderground v.1.15,2013-05-16 06:46:00,
2013-05-16 02:51:00,65.3,51.1,29.97,WNW,303,2.0,3.0,60,0.00,,,0.00,Wunderground v.1.15,2013-05-16 06:51:00,
2013-05-16 02:56:00,65.5,51.2,29.97,WNW,303,2.0,4.0,60,0.00,,,0.00,Wunderground v.1.15,2013-05-16 06:56:00,
2013-05-16 03:01:00,65.5,51.2,29.97,WNW,303,0.0,1.0,60,0.00,,,0.00,Wunderground v.1.15,2013-05-16 07:01:00,
2013-05-16 03:06:00,65.6,51.3,29.97,WNW,303,0.0,3.0,60,0.00,,,0.00,Wunderground v.1.15,2013-05-16 07:06:00,
2013-05-16 03:11:00,65.6,51.3,29.97,WNW,303,3.0,3.0,60,0.00,,,0.00,Wunderground v.1.15,2013-05-16 07:11:00,
2013-05-16 03:16:00,65.8,51.1,29.97,WNW,303,0.0,4.0,59,0.00,,,0.00,Wunderground v.1.15,2013-05-16 07:16:00,
2013-05-16 03:21:00,65.8,51.1,29.97,WNW,302,3.0,5.0,59,0.00,,,0.00,Wunderground v.1.15,2013-05-16 07:21:00,
2013-05-16 03:26:00,65.8,51.5,29.97,WNW,302,2.0,5.0,60,0.00,,,0.00,Wunderground v.1.15,2013-05-16 07:26:00,
2013-05-16 03:31:00,65.6,50.9,29.97,WNW,302,0.0,3.0,59,0.00,,,0.00,Wunderground v.1.15,2013-05-16 07:31:00,
2013-05-16 03:36:00,65.6,51.3,29.97,WNW,302,0.0,3.0,60,0.00,,,0.00,Wunderground v.1.15,2013-05-16 07:36:00,
2013-05-16 03:41:00,65.6,51.3,29.97,WNW,302,0.0,3.0,60,0.00,,,0.00,Wunderground v.1.15,2013-05-16 07:41:00,
2013-05-16 03:46:00,65.5,51.7,29.97,WNW,302,0.0,3.0,61,0.00,,,0.00,Wunderground v.1.15,2013-05-16 07:46:00,
2013-05-16 03:51:00,65.5,51.2,29.97,WNW,302,0.0,4.0,60,0.00,,,0.00,Wunderground v.1.15,2013-05-16 07:51:00,
2013-05-16 03:56:00,65.5,51.2,29.97,WNW,302,3.0,4.0,60,0.00,,,0.00,Wunderground v.1.15,2013-05-16 07:56:00,
2013-05-16 04:01:00,65.5,51.2,29.97,WNW,302,4.0,4.0,60,0.00,,,0.00,Wunderground v.1.15,2013-05-16 08:01:00,
2013-05-16 04:06:00,65.5,51.7,29.97,WNW,302,3.0,5.0,61,0.00,,,0.00,Wunderground v.1.15,2013-05-16 08:06:00,
2013-05-16 04:11:00,65.3,51.5,29.97,WNW,302,2.0,3.0,61,0.00,,,0.00,Wunderground v.1.15,2013-05-16 08:11:00,
2013-05-16 04:16:00,65.0,51.2,29.97,WNW,302,0.0,4.0,61,0.00,,,0.00,Wunderground v.1.15,2013-05-16 08:16:00,
2013-05-16 04:21:00,65.0,51.2,29.97,WNW,302,0.0,3.0,61,0.00,,,0.00,Wunderground v.1.15,2013-05-16 08:21:00,
2013-05-16 04:26:00,65.0,51.2,29.97,WNW,302,0.0,3.0,61,0.00,,,0.00,Wunderground v.1.15,2013-05-16 08:26:00,
2013-05-16 04:31:00,65.0,51.2,29.97,WNW,302,2.0,3.0,61,0.00,,,0.00,Wunderground v.1.15,2013-05-16 08:31:00,
2013-05-16 04:36:00,65.0,51.2,29.97,WNW,302,0.0,4.0,61,0.00,,,0.00,Wunderground v.1.15,2013-05-16 08:36:00,
2013-05-16 04:41:00,65.0,51.2,29.97,WNW,302,0.0,2.0,61,0.00,,,0.00,Wunderground v.1.15,2013-05-16 08:41:00,
2013-05-16 04:46:00,65.0,51.7,29.97,WNW,302,0.0,3.0,62,0.00,,,0.00,Wunderground v.1.15,2013-05-16 08:46:00,
2013-05-16 04:51:00,65.2,51.4,29.98,WNW,302,0.0,3.0,61,0.00,,,0.00,Wunderground v.1.15,2013-05-16 08:51:00,
2013-05-16 04:56:00,65.3,51.1,29.98,WNW,302,0.0,4.0,60,0.00,,,0.00,Wunderground v.1.15,2013-05-16 08:56:00,
2013-05-16 05:01:00,65.6,51.3,29.98,WNW,302,0.0,5.0,60,0.00,,,0.00,Wunderground v.1.15,2013-05-16 09:01:00,
2013-05-16 05:06:00,65.8,51.5,29.98,WNW,302,1.0,5.0,60,0.00,,,0.00,Wunderground v.1.15,2013-05-16 09:06:00,
2013-05-16 05:11:00,65.8,51.1,29.98,WNW,299,0.0,5.0,59,0.00,,,0.00,Wunderground v.1.15,2013-05-16 09:11:00,
2013-05-16 05:16:00,65.8,51.5,29.98,WNW,299,3.0,5.0,60,0.00,,,0.00,Wunderground v.1.15,2013-05-16 09:16:00,
2013-05-16 05:21:00,65.8,51.5,29.98,WNW,299,3.0,4.0,60,0.00,,,0.00,Wunderground v.1.15,2013-05-16 09:21:00,
2013-05-16 05:26:00,65.8,51.5,29.98,WNW,299,1.0,4.0,60,0.00,,,0.00,Wunderground v.1.15,2013-05-16 09:26:00,
2013-05-16 05:31:00,65.8,51.5,29.98,WNW,299,0.0,2.0,60,0.00,,,0.00,Wunderground v.1.15,2013-05-16 09:31:00,
2013-05-16 05:36:00,65.8,51.5,29.98,WNW,299,0.0,3.0,60,0.00,,,0.00,Wunderground v.1.15,2013-05-16 09:36:00,
2013-05-16 05:41:00,65.8,52.0,29.98,WNW,299,4.0,4.0,61,0.00,,,0.00,Wunderground v.1.15,2013-05-16 09:41:00,
2013-05-16 05:46:00,65.8,51.5,29.98,WNW,299,1.0,4.0,60,0.00,,,0.00,Wunderground v.1.15,2013-05-16 09:46:00,
2013-05-16 05:51:00,65.8,51.5,29.98,WNW,299,1.0,4.0,60,0.00,,,0.00,Wunderground v.1.15,2013-05-16 09:51:00,
2013-05-16 05:56:00,65.8,51.5,29.98,WNW,299,1.0,4.0,60,0.00,,,0.00,Wunderground v.1.15,2013-05-16 09:56:00,
2013-05-16 06:01:00,65.8,52.0,29.98,WNW,298,0.0,5.0,61,0.00,,,0.00,Wunderground v.1.15,2013-05-16 10:01:00,
2013-05-16 06:06:00,65.8,51.5,29.99,WNW,298,3.0,5.0,60,0.00,,,0.00,Wunderground v.1.15,2013-05-16 10:06:00,
2013-05-16 06:11:00,65.8,52.0,29.99,WNW,298,0.0,2.0,61,0.00,,,0.00,Wunderground v.1.15,2013-05-16 10:11:00,
2013-05-16 06:16:00,65.6,52.2,29.99,WNW,298,0.0,3.0,62,0.00,,,0.00,Wunderground v.1.15,2013-05-16 10:16:00,
2013-05-16 06:21:00,65.5,52.1,29.98,WNW,298,0.0,3.0,62,0.00,,,0.00,Wunderground v.1.15,2013-05-16 10:21:00,
2013-05-16 06:26:00,65.5,52.1,29.98,WNW,298,0.0,3.0,62,0.00,,,0.00,Wunderground v.1.15,2013-05-16 10:26:00,
2013-05-16 06:31:00,65.5,52.1,29.98,WNW,298,0.0,0.0,62,0.00,,,0.00,Wunderground v.1.15,2013-05-16 10:31:00,
2013-05-16 06:36:00,65.3,51.9,29.99,WNW,298,0.0,1.0,62,0.00,,,0.00,Wunderground v.1.15,2013-05-16 10:36:00,
2013-05-16 06:41:00,65.2,52.3,29.99,WNW,298,0.0,1.0,63,0.00,,,0.00,Wunderground v.1.15,2013-05-16 10:41:00,
2013-05-16 06:46:00,65.0,52.1,29.99,WNW,298,0.0,3.0,63,0.00,,,0.00,Wunderground v.1.15,2013-05-16 10:46:00,
2013-05-16 06:51:00,64.8,51.9,29.99,WNW,298,0.0,0.0,63,0.00,,,0.00,Wunderground v.1.15,2013-05-16 10:51:00,
2013-05-16 06:56:00,64.8,52.3,29.99,WNW,298,0.0,3.0,64,0.00,,,0.00,Wunderground v.1.15,2013-05-16 10:56:00,
2013-05-16 07:01:00,64.8,52.3,29.99,WNW,298,0.0,0.0,64,0.00,,,0.00,Wunderground v.1.15,2013-05-16 11:01:00,
2013-05-16 07:06:00,64.8,52.3,29.99,WNW,298,0.0,1.0,64,0.00,,,0.00,Wunderground v.1.15,2013-05-16 11:06:00,
2013-05-16 07:11:00,64.8,52.3,29.99,WNW,298,0.0,1.0,64,0.00,,,0.00,Wunderground v.1.15,2013-05-16 11:11:00,
2013-05-16 07:16:00,64.8,52.3,29.99,WNW,298,0.0,1.0,64,0.00,,,0.00,Wunderground v.1.15,2013-05-16 11:16:00,
2013-05-16 07:21:00,64.8,52.8,29.99,WNW,298,0.0,1.0,65,0.00,,,0.00,Wunderground v.1.15,2013-05-16 11:21:00,
2013-05-16 07:26:00,64.8,52.8,29.99,WNW,298,0.0,1.0,65,0.00,,,0.00,Wunderground v.1.15,2013-05-16 11:26:00,
2013-05-16 07:31:00,64.8,52.8,29.99,WNW,298,0.0,1.0,65,0.00,,,0.00,Wunderground v.1.15,2013-05-16 11:31:00,
2013-05-16 07:36:00,65.0,53.4,30.02,WNW,298,0.0,1.0,66,0.00,,,0.00,Wunderground v.1.15,2013-05-16 11:36:00,
2013-05-16 07:41:00,65.0,53.4,30.02,WNW,298,0.0,0.0,66,0.00,,,0.00,Wunderground v.1.15,2013-05-16 11:41:00,
2013-05-16 07:46:00,64.8,53.6,30.02,WNW,298,0.0,0.0,67,0.00,,,0.00,Wunderground v.1.15,2013-05-16 11:46:00,
2013-05-16 07:51:00,64.7,53.9,30.02,WNW,298,0.0,0.0,68,0.00,,,0.00,Wunderground v.1.15,2013-05-16 11:51:00,
2013-05-16 07:56:00,64.5,54.1,30.02,WNW,298,0.0,1.0,69,0.00,,,0.00,Wunderground v.1.15,2013-05-16 11:56:00,
2013-05-16 08:01:00,64.3,53.9,30.02,WNW,298,0.0,0.0,69,0.00,,,0.00,Wunderground v.1.15,2013-05-16 12:01:00,
2013-05-16 08:06:00,64.3,53.9,30.02,WNW,298,2.0,2.0,69,0.00,,,0.00,Wunderground v.1.15,2013-05-16 12:06:00,
2013-05-16 08:11:00,64.5,54.1,30.02,WNW,298,0.0,0.0,69,0.00,,,0.00,Wunderground v.1.15,2013-05-16 12:11:00,
2013-05-16 08:16:00,64.7,54.3,30.02,WNW,298,0.0,0.0,69,0.00,,,0.00,Wunderground v.1.15,2013-05-16 12:16:00,
2013-05-16 08:21:00,64.8,54.4,30.02,WNW,298,0.0,0.0,69,0.00,,,0.00,Wunderground v.1.15,2013-05-16 12:21:00,
2013-05-16 08:26:00,65.2,54.8,30.02,WNW,298,2.0,3.0,69,0.00,,,0.00,Wunderground v.1.15,2013-05-16 12:26:00,
2013-05-16 08:31:00,65.3,54.1,30.02,WNW,298,0.0,2.0,67,0.00,,,0.00,Wunderground v.1.15,2013-05-16 12:31:00,
2013-05-16 08:36:00,65.6,54.8,30.04,WNW,298,1.0,4.0,68,0.00,,,0.00,Wunderground v.1.15,2013-05-16 12:36:00,
2013-05-16 08:41:00,65.8,54.9,30.04,WNW,298,0.0,4.0,68,0.00,,,0.00,Wunderground v.1.15,2013-05-16 12:41:00,
2013-05-16 08:46:00,66.0,55.1,30.04,WNW,298,0.0,4.0,68,0.00,,,0.00,Wunderground v.1.15,2013-05-16 12:46:00,
2013-05-16 08:51:00,66.1,55.6,30.03,WNW,298,0.0,0.0,69,0.00,,,0.00,Wunderground v.1.15,2013-05-16 12:51:00,
2013-05-16 08:56:00,66.3,55.8,30.03,WNW,298,0.0,0.0,69,0.00,,,0.00,Wunderground v.1.15,2013-05-16 12:56:00,
2013-05-16 09:01:00,66.4,55.5,30.03,WNW,298,0.0,2.0,68,0.00,,,0.00,Wunderground v.1.15,2013-05-16 13:01:00,
2013-05-16 09:06:00,66.8,55.9,30.03,WNW,298,0.0,2.0,68,0.00,,,0.00,Wunderground v.1.15,2013-05-16 13:06:00,
2013-05-16 09:11:00,66.9,55.6,30.03,WNW,298,0.0,1.0,67,0.00,,,0.00,Wunderground v.1.15,2013-05-16 13:11:00,
2013-05-16 09:16:00,67.3,56.8,30.03,WNW,298,0.0,1.0,69,0.00,,,0.00,Wunderground v.1.15,2013-05-16 13:16:00,
2013-05-16 09:21:00,67.4,57.3,30.03,WNW,298,0.0,0.0,70,0.00,,,0.00,Wunderground v.1.15,2013-05-16 13:21:00,
2013-05-16 09:27:00,67.8,57.7,30.03,WNW,298,0.0,0.0,70,0.00,,,0.00,Wunderground v.1.15,2013-05-16 13:27:00,
2013-05-16 09:32:00,68.3,59.3,30.03,WNW,298,0.0,0.0,73,0.00,,,0.00,Wunderground v.1.15,2013-05-16 13:32:00,
2013-05-16 09:37:00,68.4,57.8,30.04,WNW,298,0.0,1.0,69,0.00,,,0.00,Wunderground v.1.15,2013-05-16 13:37:00,
2013-05-16 09:42:00,68.4,57.0,30.04,WNW,298,0.0,1.0,67,0.00,,,0.00,Wunderground v.1.15,2013-05-16 13:42:00,
2013-05-16 09:47:00,68.4,57.4,30.04,WNW,298,0.0,1.0,68,0.00,,,0.00,Wunderground v.1.15,2013-05-16 13:47:00,
2013-05-16 09:52:00,68.6,58.0,30.04,WNW,298,0.0,0.0,69,0.00,,,0.00,Wunderground v.1.15,2013-05-16 13:52:00,
2013-05-16 09:57:00,68.8,58.2,30.04,WNW,298,0.0,1.0,69,0.00,,,0.00,Wunderground v.1.15,2013-05-16 13:57:00,
2013-05-16 10:02:00,68.9,59.5,30.04,WNW,298,0.0,0.0,72,0.00,,,0.00,Wunderground v.1.15,2013-05-16 14:02:00,
2013-05-16 10:07:00,69.6,59.4,30.05,WNW,298,0.0,0.0,70,0.00,,,0.00,Wunderground v.1.15,2013-05-16 14:07:00,
2013-05-16 10:12:00,70.1,58.6,30.05,WNW,297,0.0,1.0,67,0.00,,,0.00,Wunderground v.1.15,2013-05-16 14:12:00,
2013-05-16 10:17:00,70.3,59.2,30.05,NW,310,0.0,2.0,68,0.00,,,0.00,Wunderground v.1.15,2013-05-16 14:17:00,
2013-05-16 10:22:00,70.4,58.9,30.05,NW,311,0.0,0.0,67,0.00,,,0.00,Wunderground v.1.15,2013-05-16 14:22:00,
2013-05-16 10:27:00,70.4,59.7,30.05,NW,312,0.0,1.0,69,0.00,,,0.00,Wunderground v.1.15,2013-05-16 14:27:00,
2013-05-16 10:32:00,70.4,59.7,30.05,NW,312,0.0,0.0,69,0.00,,,0.00,Wunderground v.1.15,2013-05-16 14:32:00,
2013-05-16 10:37:00,70.4,58.9,30.05,NW,312,0.0,0.0,67,0.00,,,0.00,Wunderground v.1.15,2013-05-16 14:37:00,
2013-05-16 10:42:00,70.4,58.9,30.05,NW,312,0.0,0.0,67,0.00,,,0.00,Wunderground v.1.15,2013-05-16 14:42:00,
2013-05-16 10:47:00,70.9,59.4,30.05,NW,312,0.0,1.0,67,0.00,,,0.00,Wunderground v.1.15,2013-05-16 14:47:00,
2013-05-16 10:52:00,71.6,59.6,30.05,NW,312,0.0,1.0,66,0.00,,,0.00,Wunderground v.1.15,2013-05-16 14:52:00,
2013-05-16 10:57:00,72.1,61.0,30.05,NW,312,0.0,4.0,68,0.00,,,0.00,Wunderground v.1.15,2013-05-16 14:57:00,
2013-05-16 11:02:00,72.8,59.0,30.05,NW,312,0.0,5.0,62,0.00,,,0.00,Wunderground v.1.15,2013-05-16 15:02:00,
2013-05-16 11:07:00,73.3,60.4,30.04,NW,312,0.0,5.0,64,0.00,,,0.00,Wunderground v.1.15,2013-05-16 15:07:00,
2013-05-16 11:12:00,73.9,59.1,30.04,NW,305,1.0,7.0,60,0.00,,,0.00,Wunderground v.1.15,2013-05-16 15:12:00,
2013-05-16 11:17:00,74.2,60.8,30.04,NW,316,0.0,7.0,63,0.00,,,0.00,Wunderground v.1.15,2013-05-16 15:17:00,
2013-05-16 11:22:00,74.2,60.3,30.04,NW,315,5.0,5.0,62,0.00,,,0.00,Wunderground v.1.15,2013-05-16 15:22:00,
2013-05-16 11:27:00,73.9,61.4,30.04,SSE,148,4.0,7.0,65,0.00,,,0.00,Wunderground v.1.15,2013-05-16 15:27:00,
2013-05-16 11:32:00,73.3,60.8,30.04,ESE,102,4.0,7.0,65,0.00,,,0.00,Wunderground v.1.15,2013-05-16 15:32:00,
2013-05-16 11:37:00,72.5,60.9,30.03,East,96,4.0,10.0,67,0.00,,,0.00,Wunderground v.1.15,2013-05-16 15:37:00,
2013-05-16 11:42:00,72.5,60.1,30.03,ESE,107,5.0,6.0,65,0.00,,,0.00,Wunderground v.1.15,2013-05-16 15:42:00,
2013-05-16 11:47:00,72.7,61.5,30.03,East,91,3.0,10.0,68,0.00,,,0.00,Wunderground v.1.15,2013-05-16 15:47:00,
2013-05-16 11:52:00,72.7,60.3,30.03,East,95,4.0,7.0,65,0.00,,,0.00,Wunderground v.1.15,2013-05-16 15:52:00,
2013-05-16 11:57:00,73.0,60.1,30.03,SE,129,4.0,10.0,64,0.00,,,0.00,Wunderground v.1.15,2013-05-16 15:57:00,
2013-05-16 12:02:00,73.3,61.3,30.03,East,95,4.0,6.0,66,0.00,,,0.00,Wunderground v.1.15,2013-05-16 16:02:00,
2013-05-16 12:07:00,72.5,60.1,30.03,East,101,1.0,11.0,65,0.00,,,0.00,Wunderground v.1.15,2013-05-16 16:07:00,
2013-05-16 12:12:00,73.0,60.5,30.03,East,96,0.0,5.0,65,0.00,,,0.00,Wunderground v.1.15,2013-05-16 16:12:00,
2013-05-16 12:17:00,74.4,63.1,30.03,ESE,110,0.0,6.0,68,0.00,,,0.00,Wunderground v.1.15,2013-05-16 16:17:00,
2013-05-16 12:22:00,74.6,61.2,30.02,East,86,6.0,6.0,63,0.00,,,0.00,Wunderground v.1.15,2013-05-16 16:22:00,
2013-05-16 12:27:00,74.6,60.7,30.02,East,98,4.0,7.0,62,0.00,,,0.00,Wunderground v.1.15,2013-05-16 16:27:00,
2013-05-16 12:32:00,74.2,62.1,30.02,ESE,122,4.0,6.0,66,0.00,,,0.00,Wunderground v.1.15,2013-05-16 16:32:00,
2013-05-16 12:37:00,74.4,60.5,30.01,ESE,102,3.0,11.0,62,0.00,,,0.00,Wunderground v.1.15,2013-05-16 16:37:00,
2013-05-16 12:42:00,73.2,60.3,30.01,ESE,115,4.0,7.0,64,0.00,,,0.00,Wunderground v.1.15,2013-05-16 16:42:00,
2013-05-16 12:47:00,74.0,61.9,30.01,East,95,5.0,9.0,66,0.00,,,0.00,Wunderground v.1.15,2013-05-16 16:47:00,
2013-05-16 12:52:00,74.4,60.5,30.01,SE,128,5.0,11.0,62,0.00,,,0.00,Wunderground v.1.15,2013-05-16 16:52:00,
2013-05-16 12:57:00,73.7,60.3,30.01,ESE,107,4.0,11.0,63,0.00,,,0.00,Wunderground v.1.15,2013-05-16 16:57:00,
2013-05-16 13:02:00,73.9,60.5,30.01,East,96,6.0,10.0,63,0.00,,,0.00,Wunderground v.1.15,2013-05-16 17:02:00,
2013-05-16 13:07:00,73.9,61.0,30.01,East,84,0.0,10.0,64,0.00,,,0.00,Wunderground v.1.15,2013-05-16 17:07:00,
2013-05-16 13:12:00,73.7,58.9,30.01,SE,136,3.0,9.0,60,0.00,,,0.00,Wunderground v.1.15,2013-05-16 17:12:00,
2013-05-16 13:17:00,73.3,59.9,30.01,ESE,103,5.0,9.0,63,0.00,,,0.00,Wunderground v.1.15,2013-05-16 17:17:00,
2013-05-16 13:22:00,73.2,60.3,30.01,ESE,106,0.0,6.0,64,0.00,,,0.00,Wunderground v.1.15,2013-05-16 17:22:00,
2013-05-16 13:27:00,73.2,59.8,30.01,East,96,5.0,6.0,63,0.00,,,0.00,Wunderground v.1.15,2013-05-16 17:27:00,
2013-05-16 13:32:00,73.0,60.1,30.01,East,87,0.0,5.0,64,0.00,,,0.00,Wunderground v.1.15,2013-05-16 17:32:00,
2013-05-16 13:37:00,73.3,61.7,30.00,East,87,0.0,5.0,67,0.00,,,0.00,Wunderground v.1.15,2013-05-16 17:37:00,
2013-05-16 13:42:00,74.6,59.3,30.00,East,87,0.0,3.0,59,0.00,,,0.00,Wunderground v.1.15,2013-05-16 17:42:00,
2013-05-16 13:47:00,76.1,61.7,30.00,East,94,0.0,6.0,61,0.00,,,0.00,Wunderground v.1.15,2013-05-16 17:47:00,
2013-05-16 13:52:00,77.2,61.8,29.99,ESE,114,4.0,4.0,59,0.00,,,0.00,Wunderground v.1.15,2013-05-16 17:52:00,
2013-05-16 13:57:00,77.2,59.8,29.99,NE,56,4.0,11.0,55,0.00,,,0.00,Wunderground v.1.15,2013-05-16 17:57:00,
2013-05-16 14:02:00,77.4,57.9,29.99,NW,308,0.0,6.0,51,0.00,,,0.00,Wunderground v.1.15,2013-05-16 18:02:00,
2013-05-16 14:07:00,78.3,60.3,29.99,ESE,113,0.0,6.0,54,0.00,,,0.00,Wunderground v.1.15,2013-05-16 18:07:00,
2013-05-16 14:12:00,78.8,59.7,29.99,ESE,105,6.0,8.0,52,0.00,,,0.00,Wunderground v.1.15,2013-05-16 18:12:00,
2013-05-16 14:17:00,78.6,58.4,29.99,ESE,112,0.0,9.0,50,0.00,,,0.00,Wunderground v.1.15,2013-05-16 18:17:00,
2013-05-16 14:22:00,78.6,58.4,29.98,East,99,3.0,6.0,50,0.00,,,0.00,Wunderground v.1.15,2013-05-16 18:22:00,
2013-05-16 14:27:00,78.1,56.8,29.98,East,98,0.0,7.0,48,0.00,,,0.00,Wunderground v.1.15,2013-05-16 18:27:00,
2013-05-16 14:32:00,77.7,58.1,29.98,East,98,0.0,2.0,51,0.00,,,0.00,Wunderground v.1.15,2013-05-16 18:32:00,
2013-05-16 14:37:00,77.4,57.9,29.98,ESE,104,5.0,7.0,51,0.00,,,0.00,Wunderground v.1.15,2013-05-16 18:37:00,
2013-05-16 14:42:00,77.7,58.7,29.98,SSE,148,0.0,1.0,52,0.00,,,0.00,Wunderground v.1.15,2013-05-16 18:42:00,
2013-05-16 14:47:00,78.5,54.8,29.98,SE,138,0.0,2.0,44,0.00,,,0.00,Wunderground v.1.15,2013-05-16 18:47:00,
2013-05-16 14:52:00,79.0,55.8,29.98,ESE,109,0.0,1.0,45,0.00,,,0.00,Wunderground v.1.15,2013-05-16 18:52:00,
2013-05-16 14:57:00,79.2,56.6,29.98,ESE,109,0.0,1.0,46,0.00,,,0.00,Wunderground v.1.15,2013-05-16 18:57:00,
2013-05-16 15:02:00,79.6,52.5,29.98,East,95,4.0,4.0,39,0.00,,,0.00,Wunderground v.1.15,2013-05-16 19:02:00,
2013-05-16 15:07:00,79.6,54.5,29.97,East,98,4.0,5.0,42,0.00,,,0.00,Wunderground v.1.15,2013-05-16 19:07:00,
2013-05-16 15:12:00,79.4,50.9,29.97,East,83,6.0,6.0,37,0.00,,,0.00,Wunderground v.1.15,2013-05-16 19:12:00,
2013-05-16 15:17:00,79.2,52.1,29.97,ESE,118,0.0,10.0,39,0.00,,,0.00,Wunderground v.1.15,2013-05-16 19:17:00,
2013-05-16 15:22:00,79.2,52.1,29.97,ESE,115,0.0,2.0,39,0.00,,,0.00,Wunderground v.1.15,2013-05-16 19:22:00,
2013-05-16 15:27:00,79.4,47.8,29.97,SE,134,0.0,5.0,33,0.00,,,0.00,Wunderground v.1.15,2013-05-16 19:27:00,
2013-05-16 15:32:00,79.4,50.9,29.97,WNW,293,2.0,7.0,37,0.00,,,0.00,Wunderground v.1.15,2013-05-16 19:32:00,
2013-05-16 15:37:00,79.4,53.0,29.97,East,85,3.0,7.0,40,0.00,,,0.00,Wunderground v.1.15,2013-05-16 19:37:00,
2013-05-16 15:42:00,79.4,50.9,29.97,NW,320,2.0,2.0,37,0.00,,,0.00,Wunderground v.1.15,2013-05-16 19:42:00,
2013-05-16 15:47:00,79.6,49.5,29.97,NNW,340,0.0,5.0,35,0.00,,,0.00,Wunderground v.1.15,2013-05-16 19:47:00,
2013-05-16 15:52:00,79.6,51.8,29.97,ESE,113,0.0,7.0,38,0.00,,,0.00,Wunderground v.1.15,2013-05-16 19:52:00,
2013-05-16 15:57:00,79.2,49.9,29.97,ESE,114,0.0,7.0,36,0.00,,,0.00,Wunderground v.1.15,2013-05-16 19:57:00,
2013-05-16 16:02:00,79.0,53.9,29.97,ENE,72,1.0,5.0,42,0.00,,,0.00,Wunderground v.1.15,2013-05-16 20:02:00,
2013-05-16 16:07:00,78.6,54.9,29.96,SE,129,2.0,11.0,44,0.00,,,0.00,Wunderground v.1.15,2013-05-16 20:07:00,
2013-05-16 16:12:00,78.6,53.6,29.96,ENE,68,0.0,2.0,42,0.00,,,0.00,Wunderground v.1.15,2013-05-16 20:12:00,
2013-05-16 16:17:00,78.6,52.9,29.96,ESE,105,5.0,7.0,41,0.00,,,0.00,Wunderground v.1.15,2013-05-16 20:17:00,
2013-05-16 16:22:00,78.5,56.0,29.96,East,97,0.0,3.0,46,0.00,,,0.00,Wunderground v.1.15,2013-05-16 20:22:00,
2013-05-16 16:27:00,78.6,55.5,29.96,East,96,0.0,4.0,45,0.00,,,0.00,Wunderground v.1.15,2013-05-16 20:27:00,
2013-05-16 16:32:00,78.8,55.7,29.96,East,98,0.0,6.0,45,0.00,,,0.00,Wunderground v.1.15,2013-05-16 20:32:00,
2013-05-16 16:37:00,78.5,54.8,29.96,East,96,1.0,6.0,44,0.00,,,0.00,Wunderground v.1.15,2013-05-16 20:37:00,
2013-05-16 16:42:00,78.5,54.1,29.96,WSW,252,0.0,4.0,43,0.00,,,0.00,Wunderground v.1.15,2013-05-16 20:42:00,
2013-05-16 16:47:00,78.5,56.0,29.96,WNW,301,1.0,5.0,46,0.00,,,0.00,Wunderground v.1.15,2013-05-16 20:47:00,
2013-05-16 16:52:00,78.5,56.0,29.96,ENE,61,0.0,5.0,46,0.00,,,0.00,Wunderground v.1.15,2013-05-16 20:52:00,
2013-05-16 16:57:00,78.6,57.3,29.96,ENE,63,3.0,5.0,48,0.00,,,0.00,Wunderground v.1.15,2013-05-16 20:57:00,
2013-05-16 17:02:00,78.3,54.6,29.96,ENE,72,3.0,5.0,44,0.00,,,0.00,Wunderground v.1.15,2013-05-16 21:02:00,
2013-05-16 17:07:00,78.1,56.8,29.95,East,91,4.0,11.0,48,0.00,,,0.00,Wunderground v.1.15,2013-05-16 21:07:00,
2013-05-16 17:12:00,78.1,56.8,29.95,East,87,0.0,6.0,48,0.00,,,0.00,Wunderground v.1.15,2013-05-16 21:12:00,
2013-05-16 17:17:00,78.1,56.2,29.95,ENE,68,0.0,7.0,47,0.00,,,0.00,Wunderground v.1.15,2013-05-16 21:17:00,
2013-05-16 17:22:00,78.1,57.4,29.95,East,96,0.0,2.0,49,0.00,,,0.00,Wunderground v.1.15,2013-05-16 21:22:00,
2013-05-16 17:27:00,78.1,57.4,29.95,ESE,112,0.0,7.0,49,0.00,,,0.00,Wunderground v.1.15,2013-05-16 21:27:00,
2013-05-16 17:32:00,77.9,58.3,29.95,East,91,1.0,6.0,51,0.00,,,0.00,Wunderground v.1.15,2013-05-16 21:32:00,
2013-05-16 17:37:00,77.4,57.3,29.95,ESE,107,6.0,10.0,50,0.00,,,0.00,Wunderground v.1.15,2013-05-16 21:37:00,
2013-05-16 17:42:00,77.2,58.2,29.95,ESE,114,4.0,9.0,52,0.00,,,0.00,Wunderground v.1.15,2013-05-16 21:42:00,
2013-05-16 17:47:00,77.0,58.6,29.95,ESE,111,0.0,11.0,53,0.00,,,0.00,Wunderground v.1.15,2013-05-16 21:47:00,
2013-05-16 17:52:00,76.8,58.4,29.96,East,97,0.0,4.0,53,0.00,,,0.00,Wunderground v.1.15,2013-05-16 21:52:00,
2013-05-16 17:57:00,76.7,58.3,29.96,ESE,104,4.0,6.0,53,0.00,,,0.00,Wunderground v.1.15,2013-05-16 21:57:00,
2013-05-16 18:02:00,76.7,59.3,29.96,ESE,105,0.0,1.0,55,0.00,,,0.00,Wunderground v.1.15,2013-05-16 22:02:00,
2013-05-16 18:07:00,77.0,58.0,29.95,ESE,104,3.0,5.0,52,0.00,,,0.00,Wunderground v.1.15,2013-05-16 22:07:00,
2013-05-16 18:12:00,77.0,58.0,29.95,ESE,105,0.0,5.0,52,0.00,,,0.00,Wunderground v.1.15,2013-05-16 22:12:00,
2013-05-16 18:17:00,77.0,56.9,29.95,East,82,1.0,5.0,50,0.00,,,0.00,Wunderground v.1.15,2013-05-16 22:17:00,
2013-05-16 18:22:00,76.7,58.3,29.95,SE,127,0.0,4.0,53,0.00,,,0.00,Wunderground v.1.15,2013-05-16 22:22:00,
2013-05-16 18:27:00,76.5,58.6,29.95,SE,127,0.0,4.0,54,0.00,,,0.00,Wunderground v.1.15,2013-05-16 22:27:00,
2013-05-16 18:32:00,76.3,58.9,29.95,East,82,1.0,4.0,55,0.00,,,0.00,Wunderground v.1.15,2013-05-16 22:32:00,
2013-05-16 18:37:00,76.3,59.9,29.95,East,85,2.0,4.0,57,0.00,,,0.00,Wunderground v.1.15,2013-05-16 22:37:00,
2013-05-16 18:42:00,76.1,59.3,29.95,ENE,78,0.0,1.0,56,0.00,,,0.00,Wunderground v.1.15,2013-05-16 22:42:00,
2013-05-16 18:47:00,76.0,59.7,29.95,ENE,78,0.0,1.0,57,0.00,,,0.00,Wunderground v.1.15,2013-05-16 22:47:00,
2013-05-16 18:52:00,75.8,59.5,29.95,NW,311,0.0,5.0,57,0.00,,,0.00,Wunderground v.1.15,2013-05-16 22:52:00,
2013-05-16 18:57:00,75.8,59.5,29.95,NE,50,0.0,5.0,57,0.00,,,0.00,Wunderground v.1.15,2013-05-16 22:57:00,
2013-05-16 19:02:00,75.4,59.6,29.95,ENE,60,0.0,3.0,58,0.00,,,0.00,Wunderground v.1.15,2013-05-16 23:02:00,
2013-05-16 19:07:00,75.3,60.0,29.95,ENE,60,0.0,3.0,59,0.00,,,0.00,Wunderground v.1.15,2013-05-16 23:07:00,
2013-05-16 19:12:00,75.1,59.8,29.95,ENE,60,0.0,1.0,59,0.00,,,0.00,Wunderground v.1.15,2013-05-16 23:12:00,
2013-05-16 19:17:00,74.9,59.6,29.95,ENE,60,0.0,1.0,59,0.00,,,0.00,Wunderground v.1.15,2013-05-16 23:17:00,
2013-05-16 19:22:00,74.7,59.4,29.95,ENE,60,0.0,2.0,59,0.00,,,0.00,Wunderground v.1.15,2013-05-16 23:22:00,
2013-05-16 19:27:00,74.7,59.9,29.95,ENE,60,0.0,3.0,60,0.00,,,0.00,Wunderground v.1.15,2013-05-16 23:27:00,
2013-05-16 19:32:00,74.6,60.3,29.95,ENE,60,0.0,0.0,61,0.00,,,0.00,Wunderground v.1.15,2013-05-16 23:32:00,
2013-05-16 19:37:00,74.4,59.6,29.95,ENE,60,0.0,0.0,60,0.00,,,0.00,Wunderground v.1.15,2013-05-16 23:37:00,
2013-05-16 19:42:00,74.4,59.1,29.95,ENE,60,0.0,1.0,59,0.00,,,0.00,Wunderground v.1.15,2013-05-16 23:42:00,
2013-05-16 19:47:00,74.2,58.9,29.95,ENE,60,0.0,2.0,59,0.00,,,0.00,Wunderground v.1.15,2013-05-16 23:47:00,
2013-05-16 19:52:00,74.0,59.2,29.96,ENE,60,0.0,0.0,60,0.00,,,0.00,Wunderground v.1.15,2013-05-16 23:52:00,
2013-05-16 19:57:00,73.7,58.9,29.96,ENE,60,0.0,0.0,60,0.00,,,0.00,Wunderground v.1.15,2013-05-16 23:57:00,
2013-05-16 20:02:00,73.5,58.8,29.96,ENE,60,0.0,1.0,60,0.00,,,0.00,Wunderground v.1.15,2013-05-17 00:02:00,
2013-05-16 20:07:00,73.3,58.1,29.96,ENE,60,0.0,1.0,59,0.00,,,0.00,Wunderground v.1.15,2013-05-17 00:07:00,
2013-05-16 20:12:00,73.3,58.6,29.96,ENE,60,0.0,1.0,60,0.00,,,0.00,Wunderground v.1.15,2013-05-17 00:12:00,
2013-05-16 20:17:00,73.2,58.5,29.96,ENE,60,0.0,1.0,60,0.00,,,0.00,Wunderground v.1.15,2013-05-17 00:17:00,
2013-05-16 20:22:00,73.0,58.3,29.97,ENE,60,0.0,0.0,60,0.00,,,0.00,Wunderground v.1.15,2013-05-17 00:22:00,
2013-05-16 20:27:00,72.8,58.1,29.97,ENE,60,0.0,0.0,60,0.00,,,0.00,Wunderground v.1.15,2013-05-17 00:27:00,
2013-05-16 20:32:00,72.7,58.0,29.97,ENE,60,0.0,1.0,60,0.00,,,0.00,Wunderground v.1.15,2013-05-17 00:32:00,
2013-05-16 20:37:00,72.5,57.8,29.97,ENE,60,0.0,1.0,60,0.00,,,0.00,Wunderground v.1.15,2013-05-17 00:37:00,
2013-05-16 20:42:00,72.3,57.6,29.97,ENE,60,0.0,1.0,60,0.00,,,0.00,Wunderground v.1.15,2013-05-17 00:42:00,
2013-05-16 20:47:00,72.1,57.9,29.97,ENE,60,0.0,1.0,61,0.00,,,0.00,Wunderground v.1.15,2013-05-17 00:47:00,
2013-05-16 20:52:00,72.0,58.3,29.97,ENE,60,0.0,1.0,62,0.00,,,0.00,Wunderground v.1.15,2013-05-17 00:52:00,
2013-05-16 20:57:00,71.8,58.5,29.97,ENE,60,0.0,1.0,63,0.00,,,0.00,Wunderground v.1.15,2013-05-17 00:57:00,
2013-05-16 21:02:00,71.3,58.9,29.97,ENE,60,0.0,1.0,65,0.00,,,0.00,Wunderground v.1.15,2013-05-17 01:02:00,
2013-05-16 21:07:00,70.9,58.5,29.97,ENE,60,0.0,2.0,65,0.00,,,0.00,Wunderground v.1.15,2013-05-17 01:07:00,
2013-05-16 21:12:00,70.6,58.3,29.97,ENE,60,0.0,1.0,65,0.00,,,0.00,Wunderground v.1.15,2013-05-17 01:12:00,
2013-05-16 21:17:00,70.4,58.1,29.97,ENE,60,0.0,1.0,65,0.00,,,0.00,Wunderground v.1.15,2013-05-17 01:17:00,
2013-05-16 21:22:00,70.4,58.5,29.98,ENE,60,0.0,0.0,66,0.00,,,0.00,Wunderground v.1.15,2013-05-17 01:22:00,
2013-05-16 21:27:00,70.3,58.8,29.98,ENE,60,0.0,1.0,67,0.00,,,0.00,Wunderground v.1.15,2013-05-17 01:27:00,
2013-05-16 21:32:00,70.3,58.8,29.98,ENE,60,0.0,1.0,67,0.00,,,0.00,Wunderground v.1.15,2013-05-17 01:32:00,
2013-05-16 21:37:00,69.9,58.4,29.98,ENE,60,0.0,1.0,67,0.00,,,0.00,Wunderground v.1.15,2013-05-17 01:37:00,
2013-05-16 21:42:00,69.6,58.6,29.98,ENE,60,0.0,1.0,68,0.00,,,0.00,Wunderground v.1.15,2013-05-17 01:42:00,
2013-05-16 21:47:00,69.6,58.6,29.98,ENE,60,0.0,1.0,68,0.00,,,0.00,Wunderground v.1.15,2013-05-17 01:47:00,
2013-05-16 21:52:00,69.4,58.8,29.98,ENE,60,0.0,0.0,69,0.00,,,0.00,Wunderground v.1.15,2013-05-17 01:52:00,
2013-05-16 21:57:00,69.1,58.9,29.98,ENE,60,0.0,1.0,70,0.00,,,0.00,Wunderground v.1.15,2013-05-17 01:57:00,
2013-05-16 22:02:00,68.8,58.2,29.98,ENE,60,2.0,3.0,69,0.00,,,0.00,Wunderground v.1.15,2013-05-17 02:02:00,
2013-05-16 22:07:00,68.4,57.8,29.98,ENE,60,0.0,3.0,69,0.00,,,0.00,Wunderground v.1.15,2013-05-17 02:07:00,
2013-05-16 22:12:00,68.4,57.4,29.98,ENE,60,1.0,1.0,68,0.00,,,0.00,Wunderground v.1.15,2013-05-17 02:12:00,
2013-05-16 22:17:00,68.4,57.4,29.98,ENE,60,0.0,2.0,68,0.00,,,0.00,Wunderground v.1.15,2013-05-17 02:17:00,
2013-05-16 22:22:00,68.6,58.0,29.99,NW,323,4.0,5.0,69,0.00,,,0.00,Wunderground v.1.15,2013-05-17 02:22:00,
2013-05-16 22:27:00,68.6,57.6,29.99,NW,323,1.0,5.0,68,0.00,,,0.00,Wunderground v.1.15,2013-05-17 02:27:00,
2013-05-16 22:32:00,68.6,57.2,29.99,NW,323,1.0,3.0,67,0.00,,,0.00,Wunderground v.1.15,2013-05-17 02:32:00,
2013-05-16 22:37:00,68.4,57.0,29.99,NW,323,0.0,4.0,67,0.00,,,0.00,Wunderground v.1.15,2013-05-17 02:37:00,
2013-05-16 22:42:00,68.4,57.0,29.99,NW,323,3.0,3.0,67,0.00,,,0.00,Wunderground v.1.15,2013-05-17 02:42:00,
2013-05-16 22:47:00,68.4,57.0,29.99,NW,323,0.0,4.0,67,0.00,,,0.00,Wunderground v.1.15,2013-05-17 02:47:00,
2013-05-16 22:52:00,68.4,57.0,29.99,NW,323,0.0,3.0,67,0.00,,,0.00,Wunderground v.1.15,2013-05-17 02:52:00,
2013-05-16 22:57:00,68.3,57.7,29.99,NW,323,0.0,4.0,69,0.00,,,0.00,Wunderground v.1.15,2013-05-17 02:57:00,
2013-05-16 23:02:00,67.9,57.4,29.99,NW,323,0.0,3.0,69,0.00,,,0.00,Wunderground v.1.15,2013-05-17 03:02:00,
2013-05-16 23:07:00,67.6,57.1,29.99,NW,323,2.0,3.0,69,0.00,,,0.00,Wunderground v.1.15,2013-05-17 03:07:00,
2013-05-16 23:12:00,67.4,56.9,29.99,NW,323,2.0,4.0,69,0.00,,,0.00,Wunderground v.1.15,2013-05-17 03:12:00,
2013-05-16 23:17:00,67.4,56.1,29.99,NW,323,2.0,4.0,67,0.00,,,0.00,Wunderground v.1.15,2013-05-17 03:17:00,
2013-05-16 23:22:00,67.3,56.0,30.00,NW,323,1.0,1.0,67,0.00,,,0.00,Wunderground v.1.15,2013-05-17 03:22:00,
2013-05-16 23:27:00,67.1,55.8,30.00,NW,323,0.0,3.0,67,0.00,,,0.00,Wunderground v.1.15,2013-05-17 03:27:00,
2013-05-16 23:32:00,67.1,55.4,30.00,NW,323,2.0,3.0,66,0.00,,,0.00,Wunderground v.1.15,2013-05-17 03:32:00,
2013-05-16 23:37:00,67.3,55.1,29.99,NW,323,0.0,3.0,65,0.00,,,0.00,Wunderground v.1.15,2013-05-17 03:37:00,
2013-05-16 23:42:00,67.3,55.1,29.99,NW,322,2.0,4.0,65,0.00,,,0.00,Wunderground v.1.15,2013-05-17 03:42:00,
2013-05-16 23:47:00,67.4,54.8,29.99,NW,322,0.0,4.0,64,0.00,,,0.00,Wunderground v.1.15,2013-05-17 03:47:00,
2013-05-16 23:52:00,67.6,55.0,29.99,NW,322,0.0,3.0,64,0.00,,,0.00,Wunderground v.1.15,2013-05-17 03:52:00,
2013-05-16 23:57:00,67.6,55.4,29.99,NW,321,0.0,3.0,65,0.00,,,0.00,Wunderground v.1.15,2013-05-17 03:57:00,